Location: Brachbach
(49.1847°N, 9.7240°E)
Time: 03:44:40
(UTC+00:00)

Meteor 1-12 Rocket - Pass Details

Date: 23 May 2024
Orbit: 855 x 925 km, 81.2° (Epoch: 13 June)

Event Time Altitude Azimuth Distance (km) Brightness Sun altitude
Rises 00:01:00 0° 345° (NNW) 3,512 8.6 -19.5°
Reaches altitude 10° 00:03:28 10° 342° (NNW) 2,578 7.6 -19.4°
Maximum altitude 00:09:16 63° 263° (W) 1,011 4.4 -19.2°
Enters shadow 00:11:50 34° 196° (SSW) 1,463 4.9 -19.2°
